x

9449880 - Friday Harbor, Wa (frdw1) Weather Station

7:30am - Fri 28th Aug 2015 All times are PDT. -7 hours from GMT.

  • Wind
    2mph, 3mph gusts
  • Sea Temp 54°f
  • Air Temp 56°f
  • Sea Pressure 1014.5mb
  • 9449880 - Friday Harbor, Wa
  • 9449880 - Friday Harbor, Wa

More Historic Weather Station data

Upgrade to MSW Pro to gain access to the past 30 days of data for over 8000 Wavebouys and Weather Stations around the globe.

Join Pro

Comparision Forecast

View Surf forecast
   
Fri 08/28 7:30am 2 3 mph 1014.5mb 54f 56f
7:24am  -  2 mph 1014.6mb 54f 56f
7:18am  -  3 mph 1014.5mb 54f 56f
7:12am 2 3 mph 1014.5mb 54f 56f
7:06am 2 5 mph 1014.3mb 54f 55f
7:00am 3 5 mph 1014.3mb 54f 55f
6:36am  -  2 mph 1014.5mb 54f 55f
6:30am  -  2 mph 1014.6mb 54f 55f
6:24am  -  2 mph 1014.5mb 54f 55f
6:18am  -  1 mph 1014.4mb 54f 55f
6:12am  -  2 mph 1014.3mb 54f 55f
6:06am 3 5 mph 1014.4mb 54f 55f
6:00am  -  2 mph 1014.4mb 54f 55f
5:36am 1 5 mph 1014.5mb 54f 57f
5:30am 2 6 mph 1014.7mb 54f 56f
5:24am 3 6 mph 1014.8mb 54f 56f
5:18am 6 9 mph 1014.8mb 54f 56f
5:12am 3 8 mph 1014.7mb 54f 57f
5:06am 6 7 mph 1014.8mb 54f 57f
5:00am 5 7 mph 1014.7mb 54f 56f
4:36am 5 7 mph 1014.6mb 54f 57f
4:30am 1 6 mph 1014.4mb 54f 57f
4:24am 7 9 mph 1014.8mb 54f 57f
4:18am  -  3 mph 1014.5mb 54f 57f
4:12am 5 7 mph 1014.8mb 54f 57f
4:06am 6 8 mph 1015.1mb 54f 56f
4:00am 7 8 mph 1014.9mb 54f 57f
3:36am 6 10 mph 1014.8mb 54f 56f
3:30am 6 10 mph 1014.9mb 54f 57f
3:24am 2 6 mph 1014.8mb 54f 57f
3:18am 6 8 mph 1015mb 54f 56f
3:12am 1 3 mph 1014.8mb 54f 57f
3:06am 1 2 mph 1014.9mb 54f 57f
3:00am 2 3 mph 1014.9mb 54f 57f
2:36am 2 3 mph 1014.3mb 54f 56f
2:30am  -  2 mph 1014.1mb 54f 57f
2:24am 3 5 mph 1014.1mb 54f 56f
2:18am 3 6 mph 1014.2mb 54f 56f
2:12am 2 6 mph 1014.2mb 54f 57f
2:06am 1 3 mph 1014mb 54f 57f
2:00am  -  2 mph 1014mb 54f 57f
1:36am  -  3 mph 1014.7mb 54f 57f
1:30am 1 3 mph 1014.8mb 54f 57f
1:24am  -  1 mph 1014.7mb 54f 57f
1:18am  -  1 mph 1014.6mb 54f 57f
1:12am  -  5 mph 1014.6mb 54f 57f
1:06am 5 6 mph 1014.4mb 54f 57f
1:00am  -  2 mph 1014.9mb 54f 57f
12:36am  -  1 mph 1015.1mb 54f 56f
12:30am 2 3 mph 1015.1mb 54f 56f
12:24am 1 3 mph 1014.9mb 54f 56f
12:18am 3 7 mph 1014.8mb 54f 56f
12:12am 5 6 mph 1014.5mb 54f 56f
12:06am 6 7 mph 1014.3mb 54f 56f
12:00am 1 5 mph 1014.2mb 54f 56f
Thu 08/27 11:36pm 5 6 mph 1014.8mb 54f 58f
11:30pm 6 7 mph 1014.7mb 54f 58f
11:24pm 6 8 mph 1015mb 54f 58f
11:18pm 6 7 mph 1014.9mb 54f 57f
11:12pm 5 6 mph 1014.6mb 54f 57f
11:06pm 6
mph
1014.5mb 54f 57f
11:00pm 5 7 mph 1014.5mb 54f 57f
10:36pm 6
mph
1014.5mb 54f 58f
10:30pm 6
mph
1014.6mb 54f 58f
10:24pm 5 6 mph 1014.7mb 55f 58f
10:18pm 3 5 mph 1014.7mb 55f 58f
10:12pm 2 3 mph 1014.5mb 55f 58f
10:06pm 2 3 mph 1014.5mb 55f 58f
10:00pm 3 7 mph 1014.5mb 55f 58f
9:36pm  -  1 mph 1014.3mb 55f 58f
9:30pm  -  3 mph 1014.3mb 55f 58f
9:24pm 2 3 mph 1014.2mb 55f 59f
9:18pm 2 3 mph 1014.2mb 55f 60f
9:12pm 3
mph
1014.2mb 55f 60f
9:06pm 3 5 mph 1014.2mb 55f 61f
9:00pm 2 5 mph 1014.2mb 55f 61f
8:36pm 1 3 mph 1014.2mb 55f 60f
8:30pm  -  2 mph 1014.2mb 55f 61f
8:24pm 1 2 mph 1014.1mb 55f 62f
8:18pm 1 2 mph 1014.2mb 55f 62f
8:12pm  -  2 mph 1014.2mb 55f 62f
8:06pm  -  2 mph 1014.3mb 55f 62f
8:00pm 2
mph
1014.3mb 55f 61f
7:36pm  -  1 mph 1014.4mb 54f 64f
7:30pm 1 2 mph 1014.5mb 54f 62f
7:24pm 2 3 mph 1014.4mb 54f 62f
7:18pm 3 5 mph 1014.4mb 53f 62f
7:12pm 2 5 mph 1014.4mb 53f 63f
7:06pm 3 5 mph 1014.6mb 53f 62f
7:00pm 2
mph
1014.6mb 53f 63f
6:36pm 8
mph
1014.8mb 53f 71f
6:30pm 6 8 mph 1014.9mb 53f 71f
6:24pm 3 6 mph 1015.1mb 53f 72f
6:18pm 6 7 mph 1015.1mb 53f 71f
6:12pm 5 6 mph 1015mb 53f 71f
6:06pm 2 3 mph 1015.1mb 53f 71f
6:00pm  -  3 mph 1015.2mb 53f 69f
5:36pm 1 3 mph 1015.4mb 53f 66f
5:30pm  -  2 mph 1015.4mb 53f 68f
5:24pm 1 3 mph 1015.4mb 53f 67f
5:18pm 3 5 mph 1015.6mb 53f 66f
5:12pm  -  2 mph 1015.6mb 53f 70f
5:06pm 1 2 mph 1015.7mb 53f 69f
5:00pm  -  1 mph 1015.9mb 53f 71f
4:36pm 2 3 mph 1016mb 53f 68f
4:30pm  -  2 mph 1016.2mb 53f 68f
4:24pm  -  1 mph 1016.3mb 53f 70f
4:18pm 1 2 mph 1016.3mb 53f 73f
4:12pm 2 3 mph 1016.3mb 53f 70f
4:06pm  -  2 mph 1016.4mb 53f 67f
4:00pm 2 3 mph 1016.4mb 53f 67f
3:36pm 1 5 mph 1016.7mb 53f 65f
3:30pm 3 6 mph 1016.7mb 53f 64f
3:24pm 2 3 mph 1016.8mb 53f 67f
3:18pm 1 2 mph 1016.9mb 53f 70f
3:12pm 2 3 mph 1017.2mb 53f 70f
3:06pm 2 3 mph 1017.2mb 53f 70f
3:00pm  -  2 mph 1017.2mb 53f 68f
2:36pm 5
mph
1017.5mb 53f 66f
2:30pm 1 2 mph 1017.6mb 53f 69f
2:24pm 2 5 mph 1017.7mb 53f 67f
2:18pm 3 5 mph 1017.8mb 53f 68f
2:12pm 1 2 mph 1017.9mb 53f 67f
2:06pm 1 2 mph 1017.8mb 53f 64f
2:00pm 1 2 mph 1017.9mb 53f 66f
1:36pm 2 5 mph 1018.1mb 54f 66f
1:30pm 3 6 mph 1018.2mb 54f 65f
1:24pm 5 6 mph 1018.3mb 54f 64f
1:18pm 3 5 mph 1018.3mb 54f 64f
1:12pm 5 7 mph 1018.4mb 54f 63f
1:06pm 5 7 mph 1018.6mb 54f 64f
1:00pm 3 5 mph 1018.7mb 54f 64f
12:36pm 1 2 mph 1018.6mb - -
12:30pm 1 3 mph 1018.5mb - -
12:24pm 2
mph
1018.5mb - -
12:18pm 2 3 mph 1018.5mb - -
12:12pm 3 5 mph 1018.5mb - -
12:06pm 2
mph
1018.5mb - -
12:00pm 1 2 mph 1018.6mb - -
11:36am 6 7 mph 1018.9mb 55f 61f
11:30am 7 8 mph 1018.8mb 55f 61f
11:24am 6 7 mph 1018.9mb 55f 61f
11:18am 5 6 mph 1018.8mb 55f 62f
11:12am 3
mph
1018.8mb 55f 62f
11:06am 3 5 mph 1018.8mb 55f 62f
11:00am 5 6 mph 1018.8mb 55f 61f
10:36am 5 7 mph 1018.8mb 55f 60f
10:30am 6 7 mph 1018.8mb 55f 60f
10:24am 5 6 mph 1018.8mb 55f 60f
10:18am 5 7 mph 1018.9mb 55f 59f
10:12am 6 7 mph 1018.8mb 55f 59f
10:06am 2 3 mph 1018.8mb 55f 61f
10:00am  -  5 mph 1018.7mb 55f 60f
9:36am  -  mph - - 58f
9:30am  -  mph - - 58f
9:24am  -  mph - - 59f
9:18am  -  mph - - 60f
9:12am  -  mph - - 59f
9:06am  -  mph - - 58f
9:00am  -  mph - - 58f
8:36am 2 3 mph 1018.6mb 55f 58f
8:30am 2 3 mph 1018.6mb 55f 58f
8:24am 3 5 mph 1018.5mb 55f 58f
8:18am 2
mph
1018.5mb 55f 58f
8:12am 2 5 mph 1018.6mb 55f 58f
8:06am 3 6 mph 1018.5mb 55f 58f
8:00am 5 6 mph 1018.6mb 55f 57f
7:54am 2 5 mph 1018.6mb 55f 57f
7:48am 2 5 mph 1018.6mb 55f 57f
4:36am  -  1 mph 1017.1mb 55f 56f
4:30am  -  1 mph 1017mb 55f 56f
4:24am  -  1 mph 1017.1mb 55f 56f
4:18am  -  1 mph 1017mb 55f 56f
4:12am  -  1 mph 1017mb 55f 56f
4:06am  -  2 mph 1017mb 55f 56f
4:00am  -  2 mph 1016.9mb 55f 56f
3:54am 1 2 mph 1017mb 55f 56f
3:48am  -  2 mph 1017mb 55f 56f
Wed 08/26 10:36pm  -  mph - 55f 59f
10:30pm  -  mph - 55f 59f
10:24pm  -  mph - 55f 59f
10:18pm  -  mph - 55f 59f
10:12pm  -  mph - 55f 59f
10:06pm  -  mph - 55f 59f
10:00pm  -  mph - 55f 59f
9:54pm  -  mph - 55f 59f
9:48pm  -  mph - 55f 59f
9:36pm  -  1 mph 1015.9mb 55f 61f
9:30pm 2
mph
1015.8mb 55f 62f
9:24pm  -  2 mph 1015.8mb 56f 61f
9:18pm  -  1 mph 1015.8mb 56f 61f
9:12pm  -  1 mph 1015.9mb 56f 60f
9:06pm  -  1 mph 1015.8mb 56f 60f
9:00pm  -  2 mph 1015.8mb 56f 60f
8:54pm 2 3 mph 1015.7mb 56f 60f
8:48pm 3 5 mph 1015.7mb 56f 63f
8:36pm 1 2 mph 1015.6mb 56f 65f
8:30pm 2 3 mph 1015.5mb 56f 65f
8:24pm 3 5 mph 1015.5mb 56f 65f
8:18pm 5 7 mph 1015.5mb 56f 65f
8:12pm 3 7 mph 1015.5mb 56f 65f
8:06pm 3 5 mph 1015.3mb 56f 65f
8:00pm 3 5 mph 1015.3mb 56f 66f
7:54pm 2 3 mph 1015.2mb 56f 66f
7:48pm 1 2 mph 1015.2mb 56f 64f
7:36pm  -  mph 1015.2mb 56f 63f
7:30pm  -  1 mph 1015.2mb 55f 63f
7:24pm 1 2 mph 1015.2mb 55f 62f
7:18pm 1 2 mph 1015.1mb 55f 63f
7:12pm 1 2 mph 1015.1mb 55f 64f
7:06pm 2 3 mph 1015.1mb 55f 63f
7:00pm 3
mph
1015mb 55f 63f
6:54pm 2 3 mph 1014.9mb 55f 64f
6:48pm 3
mph
1014.9mb 55f 63f
6:36pm 2 5 mph 1015mb 55f 64f
6:30pm 2 3 mph 1015mb 56f 64f
6:24pm 3
mph
1015.1mb 56f 64f
6:18pm 3
mph
1015.1mb 56f 66f
6:12pm 2 3 mph 1015mb 56f 66f
6:06pm 2 3 mph 1015mb 56f 65f
6:00pm 2 3 mph 1015mb 55f 66f
5:54pm 2 3 mph 1015mb 54f 65f
5:48pm 3 5 mph 1015.1mb 54f 65f
5:36pm  -  1 mph 1015.1mb 54f 68f
5:30pm  -  3 mph 1015.2mb 54f 67f
5:24pm 2
mph
1015.2mb 54f 65f
5:18pm 2 3 mph 1015.3mb 54f 65f
5:12pm 2 3 mph 1015.3mb 54f 64f
5:06pm 3
mph
1015.3mb 54f 64f
5:00pm 2 5 mph 1015.3mb 54f 65f
4:54pm 3 5 mph 1015.3mb 54f 66f
4:48pm 2 3 mph 1015.3mb 54f 67f
4:36pm  -  3 mph 1015.4mb 54f 72f
4:30pm 3 5 mph 1015.4mb 54f 72f
4:24pm 3 5 mph 1015.5mb 54f 72f
4:18pm 5
mph
1015.5mb 54f 72f
4:12pm 3 6 mph 1015.5mb 54f 72f
4:06pm 5
mph
1015.5mb 54f 71f
4:00pm 2 3 mph 1015.5mb 54f 68f
3:54pm 3 5 mph 1015.5mb 54f 70f
3:48pm 3 6 mph 1015.5mb 54f 71f
3:36pm 5
mph
1015.6mb 54f 70f
3:30pm 3
mph
1015.7mb 54f 70f
3:24pm 3 5 mph 1015.8mb 54f 70f
3:18pm 5
mph
1015.8mb 54f 70f
3:12pm 5 6 mph 1015.9mb 54f 69f
3:06pm 6 7 mph 1015.9mb 55f 64f
3:00pm 6
mph
1015.9mb 54f 68f
2:54pm 6 8 mph 1016mb 54f 69f
2:48pm 7 8 mph 1016mb 54f 68f
2:36pm 7 8 mph 1016.2mb 55f 68f
2:30pm 7 8 mph 1016.2mb 55f 68f
2:24pm 7 8 mph 1016.2mb 55f 68f
2:18pm 6 8 mph 1016.2mb 55f 68f
2:12pm 7 8 mph 1016.2mb 55f 67f
2:06pm 7 9 mph 1016.3mb 55f 67f
2:00pm 6 8 mph 1016.4mb 55f 67f
1:54pm 5 6 mph 1016.4mb 54f 67f
1:48pm 5 6 mph 1016.3mb 54f 67f
1:36pm 3 5 mph 1016.4mb 54f 67f
1:30pm 3 5 mph 1016.5mb 54f 67f
1:24pm 5 6 mph 1016.4mb 54f 67f
1:18pm 5 6 mph 1016.4mb 54f 67f
1:12pm 5 6 mph 1016.5mb 54f 67f
1:06pm 6 7 mph 1016.5mb 55f 66f
1:00pm 5 7 mph 1016.7mb 55f 65f
12:54pm 2 3 mph 1016.9mb 55f 64f
12:48pm 2 3 mph 1016.8mb 55f 62f
12:36pm 2 3 mph 1016.8mb 56f 60f
12:30pm 2
mph
1016.9mb 56f 61f
12:24pm 2
mph
1016.9mb 56f 61f
12:18pm 2 3 mph 1016.9mb 56f 61f
12:12pm 2 3 mph 1016.9mb 56f 60f
12:06pm 3
mph
1016.9mb 56f 60f
12:00pm 3 5 mph 1016.9mb 56f 60f
11:54am 3 5 mph 1016.9mb 56f 60f
11:48am 5 6 mph 1017mb 56f 61f
11:36am 6
mph
1016.9mb 56f 62f
11:30am 6
mph
1016.9mb 56f 63f
11:24am 5 6 mph 1017mb 56f 63f
11:18am 5 6 mph 1016.9mb 56f 61f
11:12am 5 6 mph 1017mb 56f 61f
11:06am 5
mph
1017mb 56f 60f
11:00am 5 6 mph 1016.9mb 56f 60f
10:54am 5
mph
1016.9mb 56f 60f
10:48am 5
mph
1017.1mb 56f 60f
10:36am 3 5 mph 1017.1mb 56f 60f
10:30am 2 3 mph 1017.1mb 56f 60f
10:24am 2 3 mph 1017.1mb 56f 60f
10:18am 2 3 mph 1017mb 56f 59f
10:12am 2
mph
1017mb 56f 58f
10:06am 2
mph
1017mb 56f 58f
10:00am 2 3 mph 1017mb 56f 58f
9:54am 2 3 mph 1017mb 56f 57f
9:48am 3
mph
1017mb 56f 57f
9:36am 3 5 mph 1017.2mb 56f 56f
9:30am 3
mph
1017.4mb 56f 57f
9:24am 1 2 mph 1017.5mb 56f 58f
9:18am 2
mph
1017.5mb 56f 58f
9:12am 2
mph
1017.5mb 56f 57f
9:06am 2
mph
1017.6mb 56f 57f
9:00am 2 3 mph 1017.6mb 56f 57f
8:54am 2 3 mph 1017.5mb 56f 57f
8:48am  -  2 mph 1017.5mb 56f 57f
8:36am 1
mph
1017.5mb 56f 58f
8:30am  -  1 mph 1017.3mb 56f 59f
8:24am 1
mph
1017.3mb 56f 58f
8:18am 1
mph
1017.3mb 56f 58f
8:12am 1
mph
1017.2mb 56f 57f
8:06am  -  1 mph 1017.3mb 56f 57f
8:00am 1
mph
1017.3mb 56f 56f
7:54am  -  1 mph 1017.3mb 56f 56f
7:48am  -  1 mph 1017.2mb 56f 56f
7:36am  -  1 mph 1017.1mb 56f 54f
7:30am 1 2 mph 1017mb 56f 53f
7:24am 1 2 mph 1017mb 56f 52f
7:18am 3
mph
1017mb 56f 52f
7:12am 2 3 mph 1017mb 56f 51f
7:06am 3
mph
1016.9mb 56f 51f
7:00am 3
mph
1016.8mb 56f 51f
6:54am 2 3 mph 1016.8mb 56f 50f
6:48am 3
mph
1016.8mb 56f 50f
6:36am 1 2 mph 1016.6mb 56f 50f
6:30am 2 3 mph 1016.6mb 56f 50f
6:24am 1 3 mph 1016.5mb 56f 50f
6:18am 2 3 mph 1016.6mb 56f 50f
6:12am 2 3 mph 1016.5mb 56f 50f
6:06am 2 3 mph 1016.6mb 56f 50f
6:00am 1 2 mph 1016.6mb 56f 50f
5:54am 3
mph
1016.5mb 56f 50f
5:48am 2 3 mph 1016.4mb 56f 50f
5:36am 2
mph
1016.3mb 56f 50f
5:30am 2
mph
1016.3mb 56f 50f
5:24am 2 3 mph 1016.2mb 56f 50f
5:18am 2 3 mph 1016.2mb 56f 50f
5:12am 1 2 mph 1016.2mb 56f 51f
5:06am  -  1 mph 1016.1mb 56f 51f
5:00am  -  1 mph 1016mb 56f 51f
4:54am 1 3 mph 1016.1mb 56f 50f
4:48am 3
mph
1016.1mb 56f 51f
4:36am 1 2 mph 1016.1mb 56f 50f
4:30am 2 3 mph 1016.1mb 56f 50f
4:24am 3 5 mph 1016.1mb 56f 50f
4:18am 2 3 mph 1016mb 56f 51f
4:12am 1 2 mph 1016mb 56f 51f
4:06am 1 2 mph 1016mb 56f 51f
4:00am 1 2 mph 1016mb 56f 51f
3:54am 2 3 mph 1016mb 56f 52f
3:48am 1 2 mph 1015.9mb 56f 52f
3:36am 2 3 mph 1015.9mb 56f 51f
3:30am 3 5 mph 1015.8mb 56f 51f
3:24am 3 5 mph 1015.8mb 56f 51f
3:18am 5
mph
1015.8mb 56f 51f
3:12am 2 3 mph 1015.7mb 56f 52f
3:06am 3
mph
1015.7mb 56f 52f
3:00am 2 3 mph 1015.6mb 56f 53f
2:54am 2 3 mph 1015.7mb 56f 52f
2:48am 2 3 mph 1015.6mb 56f 52f
2:36am 2 3 mph 1015.7mb 56f 52f
2:30am 2 3 mph 1015.6mb 56f 52f
2:24am 3
mph
1015.6mb 56f 52f
2:18am 2 3 mph 1015.5mb 56f 52f
2:12am 2 3 mph 1015.6mb 56f 52f
2:06am 1
mph
1015.6mb 56f 53f
2:00am 1 2 mph 1015.6mb 56f 52f
1:54am 1 2 mph 1015.7mb 56f 52f
1:48am 1 2 mph 1015.7mb 56f 52f
1:36am  -  mph 1015.6mb 56f 53f
1:30am  -  mph 1015.6mb 56f 53f
1:24am  -  mph 1015.6mb 56f 53f
1:18am  -  1 mph 1015.7mb 56f 53f
1:12am 1 2 mph 1015.6mb 56f 53f
1:06am 2 3 mph 1015.7mb 56f 53f
1:00am  -  2 mph 1015.7mb 56f 55f
12:54am  -  1 mph 1015.6mb 56f 55f
12:48am  -  1 mph 1015.7mb 56f 55f
12:36am 1 2 mph 1015.8mb 56f 55f
12:30am  -  1 mph 1015.9mb 56f 55f
12:24am  -  1 mph 1015.8mb 56f 55f
12:18am  -  1 mph 1015.8mb 56f 55f
12:12am  -  1 mph 1015.8mb 56f 55f
12:06am  -  1 mph 1015.8mb 56f 55f
12:00am  -  1 mph 1015.9mb 56f 54f
Tue 08/25 11:54pm  -  mph 1015.9mb 56f 54f
11:48pm 1 2 mph 1015.9mb 56f 54f
11:36pm  -  1 mph 1015.8mb 56f 54f
11:30pm 1 2 mph 1015.8mb 56f 55f
11:24pm  -  1 mph 1015.7mb 56f 55f
11:18pm  -  mph 1015.8mb 56f 55f
11:12pm  -  1 mph 1015.8mb 56f 55f
11:06pm 1 2 mph 1015.8mb 56f 55f
11:00pm  -  1 mph 1015.9mb 56f 55f
10:54pm  -  2 mph 1015.9mb 56f 55f
10:48pm 2 3 mph 1015.9mb 56f 56f
10:36pm  -  1 mph 1015.9mb 56f 57f
10:30pm  -  1 mph 1016mb 56f 57f
10:24pm  -  2 mph 1016.1mb 56f 57f
10:18pm  -  2 mph 1016.2mb 56f 57f
10:12pm 1 2 mph 1016.1mb 56f 57f
10:06pm 2
mph
1016.1mb 56f 57f
10:00pm  -  mph 1016mb 56f 57f
9:54pm  -  1 mph 1016mb 56f 57f
9:48pm  -  2 mph 1016.1mb 56f 57f
9:36pm  -  1 mph 1016.1mb 56f 57f
9:30pm  -  1 mph 1016.1mb 56f 57f
9:24pm  -  2 mph 1016.1mb 56f 57f
9:18pm 1 2 mph 1016.1mb 56f 57f
9:12pm 2 3 mph 1016.2mb 56f 58f
9:06pm 2 3 mph 1016.1mb 56f 58f
9:00pm 2 3 mph 1016.1mb 56f 58f
8:54pm 1 2 mph 1016.2mb 56f 59f
8:48pm 1 2 mph 1016.1mb 56f 59f
8:36pm 2 3 mph 1016.1mb 56f 60f
8:30pm 2 3 mph 1016.1mb 56f 62f
8:24pm 3 5 mph 1016.1mb 56f 62f
8:18pm 3 6 mph 1016.1mb 56f 62f
8:12pm 5 6 mph 1016.1mb 56f 63f
8:06pm 5
mph
1016.1mb 56f 63f
8:00pm 5 6 mph 1016.1mb 56f 63f
7:54pm 6
mph
1016.1mb 56f 64f
7:48pm 6
mph
1016.1mb 56f 65f
7:36pm 5 8 mph 1016.1mb 56f 65f
7:30pm 6 8 mph 1016.2mb 56f 65f
7:24pm 8 9 mph 1016.2mb 56f 65f
7:18pm 7 8 mph 1016.2mb 56f 65f
7:12pm 7 8 mph 1016.1mb 56f 65f
7:06pm 7 9 mph 1016.2mb 56f 66f
7:00pm 6 8 mph 1016.2mb 56f 66f
6:54pm 7 8 mph 1016.3mb 56f 65f
6:48pm 7 8 mph 1016.3mb 56f 66f
6:36pm 7 9 mph 1016.2mb 56f 67f
6:30pm 7 9 mph 1016.2mb 56f 67f
6:24pm 7 8 mph 1016.3mb 56f 67f
6:18pm 6 8 mph 1016.3mb 56f 67f
6:12pm 7 8 mph 1016.3mb 56f 67f
6:06pm 7 8 mph 1016.3mb 56f 67f
6:00pm 9
mph
1016.3mb 56f 68f
5:54pm 8 9 mph 1016.3mb 56f 68f
5:48pm 9
mph
1016.4mb 56f 68f
5:36pm 7 9 mph 1016.5mb 56f 68f
5:30pm 8 9 mph 1016.5mb 56f 68f
5:24pm 9 10 mph 1016.6mb 56f 68f
5:18pm 7 8 mph 1016.7mb 56f 68f
5:12pm 7 8 mph 1016.8mb 56f 69f
5:06pm 6 7 mph 1017mb 56f 68f
5:00pm 2 3 mph 1017.1mb 56f 69f
4:54pm  -  2 mph 1017.1mb 56f 68f
4:48pm 1 2 mph 1017.1mb 56f 67f
4:36pm 2 3 mph 1017.1mb 57f 67f
4:30pm 3 5 mph 1017.2mb 57f 67f
4:24pm 5 6 mph 1017.2mb 57f 67f
4:18pm 5 6 mph 1017.2mb 56f 67f
4:12pm 5 6 mph 1017.3mb 56f 67f
4:06pm 5 7 mph 1017.3mb 56f 66f
4:00pm 5 6 mph 1017.4mb 55f 65f
3:54pm 5 6 mph 1017.5mb 55f 67f
3:48pm 5 6 mph 1017.5mb 55f 66f
3:36pm 5 6 mph 1017.6mb 55f 65f
3:30pm 3 5 mph 1017.7mb 55f 67f
3:24pm 2 3 mph 1017.7mb 55f 67f
3:18pm 2 5 mph 1017.8mb 55f 67f
3:12pm 3 6 mph 1017.9mb 55f 67f
3:06pm 2 5 mph 1018mb 56f 67f
3:00pm 5 6 mph 1018mb 56f 66f
2:54pm 3 6 mph 1018mb 57f 66f
2:48pm 3 9 mph 1018.1mb 57f 66f
2:36pm 2 5 mph 1018.1mb 57f 64f
2:30pm 2 3 mph 1018.2mb 57f 66f
2:24pm 1 6 mph 1018.3mb 57f 67f
2:18pm 1 6 mph 1018.3mb 57f 67f
2:12pm 3 7 mph 1018.3mb 57f 67f
2:06pm 7 8 mph 1018.4mb 57f 66f
2:00pm 6 7 mph 1018.5mb 56f 65f
1:54pm 6 7 mph 1018.5mb 56f 66f
1:48pm 6
mph
1018.6mb 55f 64f
1:36pm 6
mph
1018.7mb 56f 62f
1:30pm 6
mph
1018.7mb 55f 62f
1:24pm 5
mph
1018.8mb 55f 62f
1:18pm 5
mph
1018.9mb 55f 62f
1:12pm 3 5 mph 1018.9mb 55f 61f
1:06pm 3
mph
1018.9mb 55f 61f
1:00pm 3
mph
1019mb 55f 60f
12:54pm 3 5 mph 1019mb 55f 61f
12:48pm 2
mph
1019.1mb 55f 62f
12:36pm 2 3 mph 1019.1mb 55f 61f
12:30pm 2 3 mph 1019.1mb 55f 61f
12:24pm 2
mph
1019.2mb 55f 61f
12:18pm 2 3 mph 1019.2mb 55f 60f
12:12pm 3 5 mph 1019.3mb 55f 60f
12:06pm 5 6 mph 1019.4mb 56f 59f
12:00pm 6 7 mph 1019.4mb 56f 59f
11:54am 7 8 mph 1019.3mb 56f 59f
11:48am 5 6 mph 1019.3mb 56f 60f
11:36am 3
mph
1019.4mb 56f 60f
11:30am 2 3 mph 1019.4mb 56f 61f
11:24am 2 3 mph 1019.4mb 56f 61f
11:18am 3
mph
1019.4mb 57f 60f
11:12am 5
mph
1019.5mb 57f 59f
11:06am 2 5 mph 1019.5mb 57f 59f
11:00am 3 5 mph 1019.5mb 57f 59f
10:54am 3
mph
1019.6mb 57f 59f
10:48am 3
mph
1019.7mb 57f 59f
10:36am 5
mph
1019.6mb 57f 58f
10:30am 3 5 mph 1019.7mb 57f 58f
10:24am 3 5 mph 1019.8mb 57f 58f
10:18am 5 6 mph 1019.7mb 57f 57f
10:12am 3 5 mph 1019.7mb 56f 57f
10:06am 3 5 mph 1019.6mb 56f 57f
10:00am 3
mph
1019.8mb 56f 57f
9:54am 3 5 mph 1019.7mb 56f 57f
9:48am 3 5 mph 1019.7mb 56f 57f
9:36am 2 3 mph 1019.8mb 56f 58f
9:30am 2 5 mph 1019.8mb 56f 58f
9:24am 3
mph
1019.9mb 56f 57f
9:18am 2 3 mph 1019.8mb 56f 58f
9:12am 3 5 mph 1019.8mb 56f 57f
9:06am 3 5 mph 1019.8mb 56f 57f
9:00am 2 5 mph 1019.8mb 56f 57f
8:54am 2 3 mph 1019.8mb 56f 57f
8:48am 1 2 mph 1019.8mb 56f 58f
8:36am  -  mph 1019.8mb 56f 60f
8:30am  -  1 mph 1019.8mb 56f 58f
8:24am  -  1 mph 1019.9mb 56f 58f
8:18am  -  1 mph 1019.8mb 56f 57f
8:12am  -  2 mph 1019.8mb 56f 56f
8:06am 2
mph
1019.8mb 56f 55f
8:00am  -  2 mph 1019.8mb 56f 56f
7:54am  -  1 mph 1019.9mb 56f 57f
7:48am  -  1 mph 1019.8mb 56f 56f
7:36am  -  1 mph 1019.7mb 56f 54f
7:30am  -  mph 1019.7mb 56f 54f
7:24am  -  mph 1019.7mb 56f 54f
7:18am  -  mph 1019.6mb 56f 53f
7:12am  -  mph 1019.6mb 56f 54f
7:06am  -  1 mph 1019.5mb 56f 54f
7:00am  -  mph 1019.4mb 56f 52f
6:54am  -  3 mph 1019.3mb 56f 50f
6:48am 2 3 mph 1019.3mb 56f 49f
6:36am  -  2 mph 1019.2mb 56f 51f
6:30am  -  2 mph 1019.1mb 56f 51f
6:24am 1 3 mph 1019.2mb 56f 51f
6:18am 2 3 mph 1019.1mb 56f 51f
6:12am  -  1 mph 1019mb 56f 52f
6:06am  -  1 mph 1018.9mb 56f 51f
6:00am  -  2 mph 1018.9mb 56f 51f
5:54am 1 2 mph 1019mb 56f 51f
5:48am 2 3 mph 1018.9mb 56f 50f
5:36am 2 3 mph 1018.9mb 56f 50f
5:30am  -  3 mph 1018.8mb 56f 51f
5:24am  -  3 mph 1018.8mb 56f 51f
5:18am 2 3 mph 1018.8mb 56f 51f
5:12am 1 2 mph 1018.8mb 56f 51f
5:06am 1 2 mph 1018.7mb 56f 51f
5:00am 1 3 mph 1018.7mb 56f 51f
4:54am 3
mph
1018.7mb 56f 51f
4:48am  -  1 mph 1018.8mb 56f 52f
4:36am  -  3 mph 1018.7mb 56f 50f
4:30am 3
mph
1018.7mb 56f 50f
4:24am 2 3 mph 1018.7mb 56f 51f
4:18am  -  mph 1018.7mb 56f 52f
4:12am  -  mph 1018.7mb 56f 52f
4:06am  -  2 mph 1018.6mb 56f 52f
4:00am  -  1 mph 1018.5mb 56f 53f
3:54am  -  2 mph 1018.5mb 56f 53f
3:48am  -  3 mph 1018.5mb 56f 52f
3:36am  -  mph 1018.4mb 56f 53f
3:30am  -  mph 1018.4mb 56f 53f
3:24am  -  mph 1018.4mb 56f 53f
3:18am  -  1 mph 1018.3mb 56f 53f
3:12am  -  1 mph 1018.3mb 56f 53f
3:06am 1 2 mph 1018.3mb 56f 53f
3:00am 1 2 mph 1018.3mb 56f 54f
2:54am  -  2 mph 1018.3mb 56f 54f
2:48am 2 3 mph 1018.2mb 56f 54f
2:36am 1 3 mph 1018.3mb 56f 53f
2:30am  -  1 mph 1018.3mb 56f 53f
2:24am  -  2 mph 1018.3mb 56f 53f
2:18am  -  2 mph 1018.3mb 56f 54f
2:12am  -  1 mph 1018.3mb 56f 54f
2:06am  -  1 mph 1018.2mb 56f 54f
2:00am 1 2 mph 1018.2mb 56f 53f
1:54am 2 5 mph 1018.2mb 56f 53f
1:48am 3
mph
1018.2mb 56f 54f
1:36am 2 5 mph 1018.2mb 56f 55f
1:30am 1 3 mph 1018.2mb 56f 55f
1:24am 2 5 mph 1018.2mb 56f 55f
1:18am 2 5 mph 1018.1mb 56f 55f
1:12am 1 3 mph 1018.1mb 56f 55f
1:06am 2 3 mph 1018.1mb 56f 55f
1:00am  -  2 mph 1018mb 56f 55f
12:54am 1 2 mph 1017.9mb 56f 55f
12:48am  -  2 mph 1017.9mb 56f 55f
12:36am  -  1 mph 1017.9mb 56f 55f
12:30am  -  mph 1017.9mb 56f 55f
12:24am  -  1 mph 1017.9mb 56f 55f
12:18am  -  1 mph 1017.9mb 56f 55f
12:12am  -  1 mph 1017.9mb 56f 55f
12:06am  -  1 mph 1017.9mb 56f 54f
12:00am 2 3 mph 1017.8mb 56f 55f
Mon 08/24 11:54pm 1 2 mph 1017.8mb 56f 56f
11:48pm 1
mph
1017.7mb 56f 56f
11:36pm  -  1 mph 1017.7mb 56f 56f
11:30pm  -  1 mph 1017.6mb 56f 56f
11:24pm  -  1 mph 1017.5mb 56f 57f
11:18pm  -  2 mph 1017.5mb 56f 57f
11:12pm 1 3 mph 1017.6mb 56f 58f
11:06pm 1 2 mph 1017.5mb 56f 57f
11:00pm 2 5 mph 1017.5mb 56f 58f
10:54pm  -  2 mph 1017.5mb 56f 58f
10:48pm  -  1 mph 1017.4mb 56f 58f
10:36pm  -  1 mph 1017.4mb 56f 58f
10:30pm  -  1 mph 1017.3mb 56f 58f
10:24pm  -  1 mph 1017.2mb 56f 58f
10:18pm  -  1 mph 1017.2mb 56f 58f
10:12pm 2 3 mph 1017.2mb 56f 58f
10:06pm 2 3 mph 1017.1mb 56f 59f
10:00pm 2 3 mph 1017.1mb 56f 59f
9:54pm  -  2 mph 1017.2mb 56f 59f
9:48pm 1 6 mph 1017.1mb 56f 59f
9:36pm 3 8 mph 1017.1mb 56f 60f
9:30pm 5 10 mph 1017.1mb 56f 60f
9:24pm 6 10 mph 1017.1mb 56f 60f
9:18pm 9 14 mph 1017.1mb 56f 60f
9:12pm 8 13 mph 1017.1mb 56f 60f
9:06pm 6 13 mph 1017mb 56f 60f
9:00pm 5 11 mph 1017mb 56f 60f
8:54pm 5 13 mph 1016.9mb 56f 61f
8:48pm 5 13 mph 1016.9mb 56f 61f
8:36pm 7 13 mph 1016.7mb 56f 61f
8:30pm 7 15 mph 1016.7mb 56f 62f
8:24pm 7 14 mph 1016.6mb 56f 62f
8:18pm 7 10 mph 1016.5mb 56f 62f
8:12pm 9 11 mph 1016.5mb 56f 62f
8:06pm 8 13 mph 1016.5mb 56f 62f
8:00pm 11 16 mph 1016.5mb 56f 63f
7:54pm 11 15 mph 1016.5mb 56f 64f
7:48pm 13 16 mph 1016.5mb 56f 64f
7:36pm 13 16 mph 1016.5mb 56f 65f
7:30pm 14 18 mph 1016.4mb 57f 66f
7:24pm 14 17 mph 1016.4mb 57f 66f
7:18pm 15 17 mph 1016.4mb 57f 66f
7:12pm 15 18 mph 1016.4mb 57f 67f
7:06pm 17 18 mph 1016.4mb 57f 67f
7:00pm 16 18 mph 1016.4mb 57f 67f
6:54pm 14 20 mph 1016.4mb 56f 67f
6:48pm 16 20 mph 1016.3mb 56f 67f
6:36pm 15 17 mph 1016.4mb 56f 67f
6:30pm 15 18 mph 1016.4mb 56f 67f
6:24pm 15 18 mph 1016.4mb 56f 67f
6:18pm 14 17 mph 1016.5mb 56f 66f
6:12pm 14 17 mph 1016.5mb 56f 67f
6:06pm 15 17 mph 1016.5mb 56f 67f
6:00pm 15 18 mph 1016.5mb 56f 67f
5:54pm 13 16 mph 1016.5mb 56f 67f
5:48pm 13 18 mph 1016.5mb 56f 67f
5:36pm 14 17 mph 1016.5mb 56f 67f
5:30pm 14 16 mph 1016.5mb 56f 67f
5:24pm 11 16 mph 1016.6mb 56f 66f
5:18pm 13 16 mph 1016.5mb 56f 66f
5:12pm 9 13 mph 1016.5mb 56f 66f
5:06pm 6 11 mph 1016.5mb 56f 66f
5:00pm 9 11 mph 1016.5mb 56f 66f
4:54pm 11 15 mph 1016.6mb 56f 66f
4:48pm 7 10 mph 1016.6mb 57f 66f
4:36pm 8 11 mph 1016.7mb 57f 66f
4:30pm 10 13 mph 1016.8mb 57f 65f
4:24pm 9 14 mph 1016.9mb 57f 65f
4:18pm 13 15 mph 1016.9mb 57f 65f
4:12pm 9 14 mph 1016.8mb 57f 65f
4:06pm 13 15 mph 1016.8mb 57f 65f
4:00pm 10 13 mph 1016.8mb 57f 65f
3:54pm 10 13 mph 1016.9mb 57f 65f
3:48pm 9 13 mph 1016.9mb 57f 65f
3:36pm 7 11 mph 1017mb 56f 64f
3:30pm 7 11 mph 1017.1mb 56f 64f
3:24pm 7 10 mph 1017.1mb 56f 64f